Regional Weather Roundup
Issued by NWS

Home | Current Version | Previous Version | Text Only | Print | Product List | Glossary Off
Versions: 1 2 3 4 5 6 7 8 9 10 11 12 13 14 15 16 17 18 19 20 21 22 23 24 25 26 27 28 29 30 31 32 33 34 35 36 37 38 39 40 41 42 43 44 45 46 47 48 49 50

000
ASUS43 KFSD 292310
RWRSD

WEATHER ROUNDUP FOR SOUTH DAKOTA
NATIONAL WEATHER SERVICE SIOUX FALLS SD
600 PM CDT SUN MAR 29 2015

NOTE: "FAIR" INDICATES FEW OR NO CLOUDS BELOW 12,000 FEET WITH NO
SIGNIFICANT WEATHER AND/OR OBSTRUCTIONS TO VISIBILITY.


SDZ001>005-009-010-012>017-300000-
NORTHWEST AND NORTH CENTRAL SOUTH DAKOTA

CITY           SKY/WX    TMP DP  RH WIND       PRES   REMARKS
BUFFALO          N/A     61  27  27 W20       29.98F
FAITH            N/A     63  27  25 NW17G24   30.03F
MOBRIDGE       SUNNY     61  30  31 NW13      29.99F
$$

SDZ012>016-024>037-041>051-057-063-072>074-300000-
SOUTHWEST AND SOUTH CENTRAL SOUTH DAKOTA

CITY           SKY/WX    TMP DP  RH WIND       PRES   REMARKS
RAPID CTY ARPT PTSUNNY   63  26  24 N12       30.07F
PIERRE         SUNNY     62  26  25 W14       30.04F
CUSTER         PTSUNNY   52  19  27 NW8       30.12F
ELLSWORTH AFB  PTSUNNY   61  26  26 N14       30.06S
PHILIP         SUNNY     66  25  21 NW14G23   30.04F
PINE RIDGE     SUNNY     62  23  22 W12G18    30.09F
SPEARFISH      FAIR      57  23  26 W16       30.09F
WINNER         FAIR      63  19  18 NW16G28   30.07F
$$

SDZ004>011-016>023-039-040-300000-
NORTHEAST SOUTH DAKOTA

CITY           SKY/WX    TMP DP  RH WIND       PRES   REMARKS
ABERDEEN       SUNNY     59  21  23 NW21G26   30.01S
WATERTOWN      SUNNY     54  25  32 NW18      29.99R
SISSETON         N/A     55  25  31 N24G32    29.95R
$$

SDZ017-020-022-023-036>040-048>070-300000-
SOUTHEAST SOUTH DAKOTA

CITY           SKY/WX    TMP DP  RH WIND       PRES   REMARKS
SIOUX FALLS    SUNNY     59  19  21 NW25G32   30.01R
HURON          SUNNY     59  14  17 NW20G30   30.02R
CHAMBERLAIN    SUNNY     59  22  23 NW10G21   30.06S
MITCHELL       SUNNY     61  19  19 NW21G30   30.04S
YANKTON        SUNNY     61  18  18 NW23G29   30.04S
$$

ABBREVIATIONS USED IN REMARKS
   TC - TEMPERATURE IN CELSIUS
  WCI - WIND CHILL INDEX
   HX - HEAT INDEX
  VSB - VISIBILITY




USA.gov is the U.S. government's official web portal to all federal, state and local government web resources and services.